| time (UTC) | temp F | wind direction | speed MPH | gust MPH | rain 1hr in | rain 24hr in | rain mn in | humidity % | barometer mb |
| 20260903034613 | 77 | 209 | 0.0 | 1.0 | 0.00 | 0.00 | 0.00 | 86 | 1016.4 |
| 20260903033015 | 78 | 209 | 0.0 | 0.0 | 0.00 | 0.00 | 0.00 | 85 | 1016.3 |
| 20260903031519 | 78 | 209 | 0.0 | 1.0 | 0.00 | 0.00 | 0.00 | 85 | 1016.4 |
| 20260903030012 | 79 | 209 | 0.0 | 2.0 | 0.00 | 0.00 | 0.00 | 84 | 1016.3 |
| 20260903024508 | 79 | 209 | 0.0 | 2.0 | 0.00 | 0.00 | 0.00 | 84 | 1016.2 |
| 20260903023009 | 79 | 190 | 0.0 | 0.0 | 0.00 | 0.00 | 0.00 | 83 | 1016.4 |
| 20260903021507 | 80 | 190 | 0.0 | 0.0 | 0.00 | 0.00 | 0.00 | 82 | 1016.5 |
| 20260903020106 | 80 | 190 | 0.0 | 1.0 | 0.00 | 0.00 | 0.00 | 82 | 1016.6 |
| 20260903014505 | 81 | 190 | 0.0 | 1.0 | 0.00 | 0.00 | 0.00 | 81 | 1016.5 |
| 20260903013005 | 81 | 190 | 0.0 | 1.0 | 0.00 | 0.00 | 0.00 | 80 | 1016.6 |
| 20260903011504 | 82 | 189 | 0.0 | 0.0 | 0.00 | 0.00 | 0.00 | 78 | 1016.4 |
| 20260903010009 | 83 | 188 | 0.0 | 1.0 | 0.00 | 0.00 | 0.00 | 77 | 1016.2 |
| 20260903004506 | 84 | 188 | 0.0 | 1.0 | 0.00 | 0.00 | 0.00 | 75 | 1016.2 |
| 20260903003002 | 84 | 188 | 0.0 | 1.0 | 0.00 | 0.00 | 0.00 | 73 | 1016.1 |
| 20260903001501 | 85 | 188 | 0.0 | 1.0 | 0.00 | 0.00 | 0.00 | 71 | 1015.9 |
| 20260903000001 | 87 | 188 | 0.0 | 0.0 | 0.00 | 0.00 | 0.00 | 69 | 1015.7 |
| 20260902234608 | 88 | 189 | 0.0 | 1.0 | 0.00 | 0.00 | 0.00 | 67 | 1015.8 |
| 20260902233159 | 90 | 188 | 0.0 | 1.0 | 0.00 | 0.00 | 0.00 | 65 | 1015.7 |
| 20260902231558 | 91 | 188 | 0.0 | 2.0 | 0.00 | 0.00 | 0.00 | 63 | 1015.8 |
| 20260902230101 | 93 | 202 | 0.0 | 2.0 | 0.00 | 0.00 | 0.00 | 60 | 1015.8 |
| 20260902224605 | 94 | 202 | 0.0 | 3.0 | 0.00 | 0.00 | 0.00 | 58 | 1015.8 |
| 20260902223056 | 94 | 173 | 2.0 | 5.0 | 0.00 | 0.00 | 0.00 | 55 | 1015.5 |
| 20260902221556 | 95 | 249 | 0.0 | 7.0 | 0.00 | 0.00 | 0.00 | 55 | 1015.6 |
| 20260902220058 | 95 | 206 | 2.0 | 6.0 | 0.00 | 0.00 | 0.00 | 53 | 1015.4 |
| 20260902214556 | 95 | 269 | 1.0 | 5.0 | 0.00 | 0.00 | 0.00 | 54 | 1015.4 |
| 20260902213054 | 95 | 158 | 0.0 | 4.0 | 0.00 | 0.00 | 0.00 | 56 | 1015.3 |
| 20260902211553 | 94 | 151 | 0.0 | 1.0 | 0.00 | 0.00 | 0.00 | 58 | 1015.3 |
| 20260902210052 | 96 | 151 | 0.0 | 1.0 | 0.00 | 0.00 | 0.00 | 54 | 1015.4 |
| 20260902204552 | 99 | 151 | 0.0 | 1.0 | 0.00 | 0.00 | 0.00 | 50 | 1015.5 |
| 20260902203052 | 101 | 151 | 0.0 | 2.0 | 0.00 | 0.00 | 0.00 | 44 | 1015.5 |
| 20260902201555 | 101 | 151 | 0.0 | 2.0 | 0.00 | 0.00 | 0.00 | 43 | 1015.6 |
| 20260902200048 | 100 | 172 | 0.0 | 3.0 | 0.00 | 0.00 | 0.00 | 44 | 1015.8 |
| 20260902194553 | 101 | 148 | 0.0 | 2.0 | 0.00 | 0.00 | 0.00 | 46 | 1016.0 |
| 20260902193045 | 102 | 148 | 0.0 | 3.0 | 0.00 | 0.00 | 0.00 | 43 | 1016.1 |
| 20260902191544 | 104 | 139 | 1.0 | 4.0 | 0.00 | 0.00 | 0.00 | 41 | 1016.2 |
| 20260902190043 | 103 | 160 | 2.0 | 4.0 | 0.00 | 0.00 | 0.00 | 40 | 1016.3 |
| 20260902184542 | 103 | 215 | 1.0 | 7.0 | 0.00 | 0.00 | 0.00 | 39 | 1016.4 |
| 20260902183038 | 102 | 64 | 1.0 | 5.0 | 0.00 | 0.00 | 0.00 | 40 | 1016.6 |
| 20260902181539 | 103 | 104 | 1.0 | 4.0 | 0.00 | 0.00 | 0.00 | 42 | 1016.7 |
| 20260902180035 | 102 | 226 | 1.0 | 3.0 | 0.00 | 0.00 | 0.00 | 42 | 1016.8 |
| 20260902174530 | 101 | 102 | 1.0 | 3.0 | 0.00 | 0.00 | 0.00 | 42 | 1016.9 |
| 20260902173028 | 100 | 163 | 1.0 | 7.0 | 0.00 | 0.00 | 0.00 | 43 | 1017.1 |
| 20260902171526 | 99 | 269 | 1.0 | 3.0 | 0.00 | 0.00 | 0.00 | 44 | 1017.2 |
| 20260902170023 | 99 | 156 | 6.0 | 10.0 | 0.00 | 0.00 | 0.00 | 44 | 1017.4 |
| 20260902164519 | 99 | 163 | 0.0 | 7.0 | 0.00 | 0.00 | 0.00 | 48 | 1017.6 |
| 20260902163018 | 98 | 189 | 1.0 | 6.0 | 0.00 | 0.00 | 0.00 | 47 | 1017.9 |
| 20260902161514 | 98 | 153 | 0.0 | 3.0 | 0.00 | 0.00 | 0.00 | 49 | 1017.9 |
| 20260902160010 | 97 | 137 | 0.0 | 2.0 | 0.00 | 0.00 | 0.00 | 52 | 1018.1 |
| 20260902154509 | 96 | 118 | 2.0 | 6.0 | 0.00 | 0.00 | 0.00 | 52 | 1018.2 |
| 20260902153002 | 94 | 142 | 1.0 | 6.0 | 0.00 | 0.00 | 0.00 | 56 | 1018.3 |
| 20260902151604 | 93 | 186 | 0.0 | 4.0 | 0.00 | 0.00 | 0.00 | 59 | 1018.3 |
| 20260902150053 | 92 | 165 | 0.0 | 3.0 | 0.00 | 0.00 | 0.00 | 60 | 1018.4 |
| 20260902144550 | 90 | 317 | 0.0 | 3.0 | 0.00 | 0.00 | 0.00 | 65 | 1018.5 |
| 20260902143045 | 88 | 192 | 0.0 | 3.0 | 0.00 | 0.00 | 0.00 | 70 | 1018.3 |
| 20260902141542 | 86 | 219 | 0.0 | 1.0 | 0.00 | 0.00 | 0.00 | 74 | 1018.2 |
| 20260902140035 | 83 | 215 | 0.0 | 3.0 | 0.00 | 0.00 | 0.00 | 79 | 1018.2 |
| 20260902134537 | 81 | 219 | 0.0 | 1.0 | 0.00 | 0.00 | 0.00 | 83 | 1018.3 |
| 20260902133027 | 78 | 221 | 1.0 | 3.0 | 0.00 | 0.00 | 0.00 | 88 | 1018.1 |
| 20260902131525 | 77 | 223 | 0.0 | 2.0 | 0.00 | 0.00 | 0.00 | 92 | 1018.1 |
| 20260902130019 | 75 | 224 | 0.0 | 2.0 | 0.00 | 0.00 | 0.00 | 94 | 1018.2 |
| 20260902124518 | 74 | 221 | 1.0 | 3.0 | 0.00 | 0.00 | 0.00 | 95 | 1018.2 |
| 20260902123021 | 73 | 296 | 0.0 | 0.0 | 0.00 | 0.00 | 0.00 | 95 | 1018.1 |
| 20260902121514 | 72 | 310 | 0.0 | 0.0 | 0.00 | 0.00 | 0.00 | 95 | 1018.3 |
| 20260902120013 | 71 | 310 | 0.0 | 0.0 | 0.00 | 0.00 | 0.00 | 95 | 1018.1 |
| 20260902114514 | 70 | 310 | 0.0 | 0.0 | 0.00 | 0.00 | 0.00 | 94 | 1018.1 |
| 20260902113009 | 70 | 310 | 0.0 | 0.0 | 0.00 | 0.00 | 0.00 | 94 | 1018.0 |
| 20260902111507 | 70 | 310 | 0.0 | 0.0 | 0.00 | 0.00 | 0.00 | 94 | 1017.8 |
| 20260902110012 | 70 | 309 | 0.0 | 0.0 | 0.00 | 0.00 | 0.00 | 94 | 1017.7 |
| 20260902104510 | 70 | 309 | 0.0 | 0.0 | 0.00 | 0.00 | 0.00 | 94 | 1017.7 |
| 20260902103001 | 70 | 309 | 0.0 | 0.0 | 0.00 | 0.00 | 0.00 | 94 | 1017.5 |
| 20260902101602 | 70 | 309 | 0.0 | 0.0 | 0.00 | 0.00 | 0.00 | 93 | 1017.4 |
| 20260902100123 | 71 | 309 | 0.0 | 0.0 | 0.00 | 0.00 | 0.00 | 93 | 1017.3 |
| 20260902094557 | 71 | 309 | 0.0 | 0.0 | 0.00 | 0.00 | 0.00 | 93 | 1017.4 |
| 20260902093112 | 71 | 309 | 0.0 | 0.0 | 0.00 | 0.00 | 0.00 | 93 | 1017.3 |
| 20260902091557 | 71 | 309 | 0.0 | 0.0 | 0.00 | 0.00 | 0.00 | 93 | 1017.4 |
| 20260902090100 | 71 | 309 | 0.0 | 0.0 | 0.00 | 0.00 | 0.00 | 93 | 1017.3 |
| 20260902084557 | 72 | 309 | 0.0 | 0.0 | 0.00 | 0.00 | 0.00 | 93 | 1017.3 |
| 20260902083103 | 72 | 308 | 0.0 | 0.0 | 0.00 | 0.00 | 0.00 | 93 | 1017.3 |
| 20260902081609 | 72 | 308 | 0.0 | 0.0 | 0.00 | 0.00 | 0.00 | 93 | 1017.2 |
| 20260902080058 | 72 | 308 | 0.0 | 0.0 | 0.00 | 0.00 | 0.00 | 92 | 1017.1 |
| 20260902074548 | 72 | 308 | 0.0 | 0.0 | 0.00 | 0.00 | 0.00 | 92 | 1017.1 |
| 20260902073047 | 72 | 308 | 0.0 | 0.0 | 0.00 | 0.00 | 0.00 | 92 | 1017.2 |
| 20260902071558 | 73 | 308 | 0.0 | 0.0 | 0.00 | 0.00 | 0.00 | 92 | 1017.2 |
| 20260902070044 | 73 | 308 | 0.0 | 0.0 | 0.00 | 0.00 | 0.00 | 92 | 1017.1 |
| 20260902064545 | 73 | 308 | 0.0 | 0.0 | 0.00 | 0.00 | 0.00 | 91 | 1017.3 |
| 20260902063101 | 73 | 308 | 0.0 | 0.0 | 0.00 | 0.00 | 0.00 | 91 | 1017.2 |
| 20260902061545 | 74 | 308 | 0.0 | 0.0 | 0.00 | 0.00 | 0.00 | 91 | 1017.4 |
| 20260902060050 | 74 | 308 | 0.0 | 0.0 | 0.00 | 0.00 | 0.00 | 90 | 1017.1 |
| 20260902054636 | 74 | 308 | 0.0 | 0.0 | 0.00 | 0.00 | 0.00 | 90 | 1017.0 |
| 20260902053032 | 75 | 308 | 0.0 | 0.0 | 0.00 | 0.00 | 0.00 | 90 | 1016.9 |
| 20260902051530 | 75 | 308 | 0.0 | 0.0 | 0.00 | 0.00 | 0.00 | 89 | 1016.7 |
| 20260902050028 | 75 | 308 | 0.0 | 0.0 | 0.00 | 0.00 | 0.00 | 89 | 1016.6 |
| 20260902044538 | 75 | 308 | 0.0 | 0.0 | 0.00 | 0.00 | 0.00 | 88 | 1016.5 |
| 20260902043024 | 76 | 308 | 0.0 | 0.0 | 0.00 | 0.00 | 0.00 | 88 | 1016.5 |
| 20260902041522 | 76 | 308 | 0.0 | 0.0 | 0.00 | 0.00 | 0.00 | 87 | 1016.5 |
| 20260902040020 | 77 | 308 | 0.0 | 0.0 | 0.00 | 0.00 | 0.00 | 87 | 1016.5 |